Regional Weather Roundup
Issued by NWS

Home | Current Version | Previous Version | Graphics & Text | Print | Product List | Glossary On
Versions: 1 2 3 4 5 6 7 8 9 10 11 12 13 14 15 16 17 18 19 20 21 22 23 24 25 26 27 28 29 30 31 32 33 34 35 36 37 38 39 40 41 42 43 44 45 46 47 48 49 50
073
ASUS45 KCYS 301210
RWRWY

WYOMING REGIONAL WEATHER ROUNDUP
NATIONAL WEATHER SERVICE CHEYENNE WY
600 AM MDT TUE AUG 30 2016

NOTE:  "FAIR" INDICATES FEW OR NO CLOUDS BELOW 12,000 FEET
WITH NO SIGNIFICANT WEATHER AND/OR OBSTRUCTIONS TO VISIBILITY.

WYZ001-301300-
YELLOWSTONE NATIONAL PARK

CITY           SKY/WX    TMP DP  RH WIND       PRES   REMARKS
LK YELLOWSTONE   N/A     38  33  82 CALM      30.47S
6HR MIN TEMP:  38; 6HR MAX TEMP:  46;

W YELLOWSTONE  NOT AVBL

$$
WYZ002>013-054>058-071-098>099-301300-
NORTHERN WYOMING

CITY           SKY/WX    TMP DP  RH WIND       PRES   REMARKS
JACKSON        FAIR      39  34  81 NE7       30.38R WCI  34
CODY           FAIR      64  37  36 SE12      30.23R
GREYBULL       FAIR      66  40  38 E5        30.18F
6HR MIN TEMP:  66; 6HR MAX TEMP:  74;

WORLAND        FAIR      66  41  40 SE10      30.21S
6HR MIN TEMP:  59; 6HR MAX TEMP:  72;

SHERIDAN       FAIR      51  43  74 SW7       30.17S
6HR MIN TEMP:  51; 6HR MAX TEMP:  64;

BUFFALO        FAIR      60  42  51 SE9       30.26S
6HR MIN TEMP:  59; 6HR MAX TEMP:  68;

GILLETTE       FAIR      61  56  83 S15       30.24F
6HR MIN TEMP:  61; 6HR MAX TEMP:  68;

HULETT         FAIR      59  52  77 CALM      30.27S
NEWCASTLE      FAIR      61  54  77 CALM      30.29S

$$
WYZ014>020-022>026-101>103-301300-
CENTRAL WYOMING

CITY           SKY/WX    TMP DP  RH WIND       PRES   REMARKS
BIG PINEY      FAIR      41  27  57 E5        30.43S
6HR MIN TEMP:  41; 6HR MAX TEMP:  58;

PINEDALE       FAIR      37  32  81 NW6       30.44S WCI  33
DUBOIS         FAIR      48  28  46 W8        30.43S
LANDER         FAIR      60  34  37 W8        30.34R
6HR MIN TEMP:  59; 6HR MAX TEMP:  74;

RIVERTON       FAIR      52  36  54 NW5       30.32R
6HR MIN TEMP:  52; 6HR MAX TEMP:  68;

CASPER         FAIR      49  44  83 CALM      30.32F
6HR MIN TEMP:  46; 6HR MAX TEMP:  63;

DOUGLAS        FAIR      50  47  89 CALM      30.32S
6HR MIN TEMP:  49; 6HR MAX TEMP:  60;


$$
WYZ021-027>030-104>119-301300-
SOUTHERN WYOMING

CITY           SKY/WX    TMP DP  RH WIND       PRES   REMARKS
EVANSTON       FAIR      52  24  33 SE7       30.37S
6HR MIN TEMP:  52; 6HR MAX TEMP:  67;

FORT BRIDGER   FAIR      49  23  34 NW6       30.41S
ROCK SPRINGS   FAIR      55  33  43 E8        30.38R
6HR MIN TEMP:  55; 6HR MAX TEMP:  66;

DIXON          FAIR      41  35  77 CALM      30.41S
RAWLINS        FAIR      43  33  68 N7        30.41S
6HR MIN TEMP:  43; 6HR MAX TEMP:  58;

SARATOGA       FAIR      39  34  81 SE6       30.43S WCI  35
LARAMIE        FAIR      39  37  92 S5        30.43F
6HR MIN TEMP:  38; 6HR MAX TEMP:  53;

CHEYENNE       FAIR      51  43  74 W6        30.37S
6HR MIN TEMP:  50; 6HR MAX TEMP:  57;

TORRINGTON     FAIR      53  53 100 NW6       30.27S
6HR MIN TEMP:  53; 6HR MAX TEMP:  61;

PINE BLUFFS    FAIR      50  45  81 W3        30.33S

$$




USA.gov is the U.S. government's official web portal to all federal, state and local government web resources and services.